STARLINK-1627 (46168 NORAD) Tracking and Keplerian Element Data

This shows tracking and keplerian element data for the satellite.

Feedback or suggestion? Click here.




ElementValue
Catalog46168
NameSTARLINK-1627
Epoch Orbit2452
Epoch Day17.99669849
Epoch Year2021
RAAN54.2854
Inclination52.9977
Eccentricity5.18E-05
Argument of Perigee97.131
Mean Anonmoly262.9755
Mean Motion15.49231562
Decay Rate-0.00496141
L11 46168U 20057BD 21017.99669849 -.00496141 00000-0 -95172-2 0 9993
L22 46168 52.9977 54.2854 0000518 97.1310 262.9755 15.49231562 24526

Live tracking and technical data element details for STARLINK-1627 (NORAD 46168). STARLINK-1627 can be tracked NOW for your location showing map with azimuth and elevation plus other details from your city location.

Track the satellite on the map from your city or location and see movement details for azimuth, elevation, latitude, longitude, range, height, and movement on the map or in text.







IsCatalogInMostPopularTable: catalog: 46168, numindb: 35
Update: records affected: 1



GetName: 46168 STARLINK-1627

Hit Count: updated at: Tue, 19 Jan 2021 03:31:50 GMT